Weather in Soroki

Moldova     48°09′36″N   28°17′47″E
temp.,
°C
wind,
m/s
gust,
m/s
humid.,
%
clouds,
%
prec.,
mm/h
press.,
hPa
HPBL,
m
4 december, sat
sat423:000nw3681100 0.0 1015194
02:00−1nw2384100 0.0 101681
05:00−2nw1184100 0.0 101611
08:00−3nw00818 0.0 101710
11:00+1sse12600 0.0 1016280
14:00+3sse23500 0.0 1013491
17:000se22631 0.0 101315
20:00−1se3363100 0.0 101243
5 december, sun
sun523:00−1se2259100 0.0 101218
02:00−2se235832 0.0 101228
05:00−2se2258100 0.0 101123
08:00−2ese2261100 0.0 101233
11:00+2se4860100 0.0 1012380
14:00+3sse4769100 0.0 1010612
17:00+2ese3779100 0.0 1011270
20:00+2ese2484100 0.0 1011139
6 december, mon
mon623:00+3ese2387100 0.0 101183
02:00+3ese2491100 0.0 1010103
05:00+4ese2496100 0.0 100995
08:00+4ese3497100 0.0 1009110
11:00+6ese2495100 0.0 1009187
14:00+7e1296100 0.0 1008109
17:00+7sse1199100 0.0 100822
20:00+7ssw119761 0.1 100810
7 december, tue
tue723:00+4wnw1197100 0.0 100910
02:00+5nw2294100 0.0 100857
05:00+4nw1193100 0.0 100830
08:00+4nw1192100 0.0 100737
11:00+5nw1190100 0.1 100790
14:00+5nw1190100 0.4 100682
17:00+5wnw1292100 0.2 100572
20:00+5wsw1293100 0.3 100697
8 december, wed
wed823:00+5wnw1294100 0.0 100599
02:00+4nnw3693100 0.2 1005278
05:00+4nnw4794100 3.8 1004273
08:00+3nnw5991100 5.8 1004348
11:00+3nnw5891100 2.4 1004397
14:00+3nw4890100 4.4 1004442
17:00+1nw5986100 0.5 1006484
20:000nw5989100 0.9 1007445